Regional Weather Roundup
Issued by NWS Huntsville, AL

Home | Current Version | Previous Version | Text Only | Print | Product List | Glossary On
Versions: 1 2 3 4 5 6 7 8 9 10 11 12 13 14 15 16 17 18 19 20 21 22 23 24 25 26 27
000
ASUS44 KHUN 231610
RWRHUN

WEATHER ROUNDUP FOR THE TENNESSEE VALLEY
NATIONAL WEATHER SERVICE HUNTSVILLE AL
1100 AM CDT MON APR 23 2018

ALZ001>004-231700-
NORTHWEST ALABAMA

CITY           SKY/WX    TMP DP  RH WIND       PRES   REMARKS
SHOALS AIRPORT PTSUNNY   63  57  81 VRB5      29.94R
$$

ALZ005>007-016-231700-
NORTH CENTRAL ALABAMA

CITY           SKY/WX    TMP DP  RH WIND       PRES   REMARKS
DECATUR AP     PTSUNNY   66  58  75 S15G23    29.94S
HUNTSVILLE AP  PTSUNNY   66  59  78 S8        29.93F
MERIDIANVILLE  PTSUNNY   67  56  67 SE10      29.95S
VINEMONT AP    FAIR      66  57  72 S8        29.96F
$$

ALZ008>010-231700-
NORTHEAST ALABAMA

CITY           SKY/WX    TMP DP  RH WIND       PRES   REMARKS
ALBERTVILLE    PTSUNNY   64  61  88 SE6       29.95S
FORT PAYNE     CLOUDY    61  59  94 CALM      29.97S FOG
SCOTTSBORO AP    N/A     64  64 100 CALM      29.96F
$$

TNZ076-096-097-231700-
SOUTHEASTERN MIDDLE TENNESSEE

CITY           SKY/WX    TMP DP  RH WIND       PRES   REMARKS
TULLAHOMA      PTSUNNY   63  59  88 SE8       29.95S
WINCHESTER     PTSUNNY   61  57  88 S7        29.96S
$$

...SURROUNDING SITES...

CITY           SKY/WX    TMP DP  RH WIND       PRES   REMARKS
ATLANTA        CLOUDY    62  61  96 E10       30.00R
ANNISTON       PTSUNNY   70  59  68 E8        29.95F
BIRMINGHAM     LGT RAIN  66  57  72 SE8       29.96F
CHATTANOOGA    CLOUDY    62  56  80 E3        29.99S
CORINTH        CLOUDY    63  55  77 S10       29.91F
DALTON         CLOUDY    63  55  77 SE13      30.00F
GADSDEN        CLOUDY    67  60  78 VRB3      29.97S
GOLDEN TRNGL   PTSUNNY   62  56  80 VRB3      29.94S
HALEYVILLE     CLOUDY    63  58  83 SW7       29.96S
JACKSON TN     CLOUDY    59  55  87 S9        29.90R
MEMPHIS        LGT RAIN  57  57 100 SW7       29.88S FOG
NASHVILLE      PTSUNNY   66  60  81 E10       29.93F
ROME           RAIN      62  61  96 SE9       29.97F FOG
SAVANNAH       PTSUNNY   59  57  94 S8        29.92S
SELMER         CLOUDY    61  54  77 S12G20    29.91R
TUPELO         CLOUDY    61  54  77 SW5       29.93S
TUSCALOOSA     CLOUDY    64  59  83 SW6       29.95S
$$

...GULF COAST WEATHER...

CITY           SKY/WX    TMP DP  RH WIND       PRES   REMARKS
GULFPORT       FAIR      67  51  56 W13G18    29.99S
PASCAGOULA     FAIR      70  50  49 VRB7      29.98F
MOBILE         FAIR      68  51  54 W9        29.98F
GULF SHORES    CLOUDY    68  59  73 W12G22    29.98S
PENSACOLA      PTSUNNY   70  59  68 W10G20    29.97
DESTIN         FAIR      75  67  76 VRB7      29.95S
APPALACHICOLA  FAIR      78  71  79 W14       29.98R
$$





USA.gov is the U.S. government's official web portal to all federal, state and local government web resources and services.